This is the latest recevied weather packets stored in our database for station/object N6GPM. If no packets are shown the sender has not sent any weather packets the latest 10 day(s).
| Time | Temp. | Humidity | Pressure | Rain* | Wind** | Luminosity | Snow |
|---|---|---|---|---|---|---|---|
| 1788640737 | 32.22° C | 17% | 1017.9 hPa | 0 mm | - | 943 W/m² | - |
| 1788640433 | 32.22° C | 17% | 1017.9 hPa | 0 mm | - | 956 W/m² | - |
| 1788640128 | 32.78° C | 17% | 1017.9 hPa | 0 mm | - | 990 W/m² | - |
| 1788639823 | 32.78° C | 17% | 1017.9 hPa | 0 mm | - | 1017 W/m² | - |
| 1788639518 | 32.78° C | 17% | 1018.2 hPa | 0 mm | - | 997 W/m² | - |
| 1788639214 | 31.67° C | 18% | 1018.2 hPa | 0 mm | - | 1042 W/m² | - |
| 1788638941 | 31.67° C | 18% | 1018 hPa | 0 mm | - | 836 W/m² | - |
| 1788638605 | 31.11° C | 18% | 1018.2 hPa | 0 mm | - | 1022 W/m² | - |
| 1788638302 | 31.67° C | 17% | 1018.5 hPa | 0 mm | - | 987 W/m² | - |
| 1788637997 | 31.11° C | 17% | 1018.4 hPa | 0 mm | - | 1045 W/m² | - |
| 1788637693 | 31.67° C | 17% | 1018.3 hPa | 0 mm | - | 1019 W/m² | - |
| 1788637387 | 31.11° C | 17% | 1018.3 hPa | 0 mm | - | 859 W/m² | - |
| 1788637087 | 31.11° C | 18% | 1018.5 hPa | 0 mm | - | 1100 W/m² | - |
| 1788636782 | 30.56° C | 16% | 1018.7 hPa | 0 mm | - | 1257 W/m² | - |
| 1788636477 | 30° C | 16% | 1018.6 hPa | 0 mm | - | 589 W/m² | - |
| 1788636173 | 30° C | 15% | 1018.5 hPa | 0 mm | - | 343 W/m² | - |
| 1788635872 | 30.56° C | 15% | 1018.5 hPa | 0 mm | - | 435 W/m² | - |
| 1788635570 | 30.56° C | 16% | 1018.9 hPa | 0 mm | - | 411 W/m² | - |
| 1788635269 | 30.56° C | 16% | 1018.7 hPa | 0 mm | - | 1003 W/m² | - |
| 1788634969 | 30.56° C | 16% | 1018.9 hPa | 0 mm | - | 1039 W/m² | - |
| 1788634668 | 30° C | 16% | 1018.9 hPa | 0 mm | - | 1136 W/m² | - |
| 1788634363 | 30° C | 16% | 1018.9 hPa | 0 mm | - | 1137 W/m² | - |
| 1788634057 | 29.44° C | 16% | 1018.9 hPa | 0 mm | - | 1266 W/m² | - |
| 1788633756 | 29.44° C | 16% | 1019.2 hPa | 0 mm | - | 1158 W/m² | - |
| 1788633455 | 29.44° C | 16% | 1019 hPa | 0 mm | - | 1165 W/m² | - |
* Rain latest hour (hover to see other rain measurements)
** Current wind speed in m/s (hover to see current wind gust speed)